Presure
158 160 138 198 183 182 129 147 188 194 133 209 125 221 224 213 209 211 197 189 222 212 199 186 159 212 211 219 198 216 198 210 201 204 208 173 212 209 203 192 202 187 191 205 193
194 186 124 140 173 187 181 165 174 166 178 170 178 211 155 200 201 206 198 173 191 149 155 163 152 181 211 200 205 202 203 202 197 202 207 212 164 154 188 198 199 178 199 181 192
127 115 118 136 163 119 135 133 113 135 198 206 149 206 180 210 200 170 226 191 194 194 181 216 143 212 126 205 207 207 204 193 195 196 198 203 198 193 143 155 178 176 195 187 157
201 195 166 180 206 189 190 194 158 179 208 198 191 200 156 153 152 185 202 174 221 177 197 200 179 216 200 206 187 204 200 148 194 199 203 205 205 205 205 189 192 199 173 150 187
162 183 180 204 159 196 184 203 173 197 172 186 211 211 201 221 225 171 206 187 169 213 215 189 194 184 197 195 209 200 196 199 197 198 197 197 187 142 196 195 192 203 164 190 200
173 197 200 196 206 190 207 207 174 223 219 204 229 233 236 242 215 199 234 209 222 201 197 213 209 203 195 176 187 206 205 193 195 201 195 191 198 198 178 163 173 191 79 159 195
195 195 197 144 202 196 207 208 212 213 225 242 229 240 256 347 193 230 242 220 169 161 203 211 211 209 216 179 178 190 208 200 189 195 200 197 195 202 199 202 204 200 208 213 193
198 195 198 204 209 187 220 208 241 226 232 229 252 258 245 260 282 233 256 246 217 234 203 223 172 221 213 205 185 175 206 203 202 207 202 196 197 174 184 205 202 179 206 189 175
196 186 200 206 206 208 219 222 230 238 231 234 254 251 242 309 308 300 295 291 293 257 245 237 205 221 216 215 212 191 192 204 196 193 196 191 152 208 208 207 204 195 205 197 195
200 211 190 206 217 213 216 217 230 226 235 244 247 242 304 288 286 289 286 278 281 269 255 242 224 233 216 216 223 209 201 182 192 196 203 202 192 189 192 197 205 100 192 199 193
205 200 207 212 222 217 222 223 224 217 240 244 230 297 300 287 280 273 276 273 271 269 273 258 241 217 237 228 216 220 216 209 201 200 191 189 200 195 199 194 203 206 206 204 189
203 214 214 209 214 216 217 215 215 229 241 237 261 309 300 290 275 270 262 271 265 263 256 271 259 232 231 235 229 224 230 208 227 219 212 200 191 204 196 188 187 193 190 191 197
217 208 205 215 212 206 218 218 215 224 237 225 272 301 293 286 283 275 272 269 273 262 264 249 254 242 232 227 232 217 222 215 218 230 213 221 217 212 210 214 212 199 193 180 204
214 211 215 207 222 219 222 214 234 230 254 258 305 302 287 282 286 281 281 275 277 270 272 269 240 254 241 235 230 220 224 218 217 212 231 222 215 224 209 207 216 219 217 212 192
208 211 212 206 227 217 219 235 230 246 244 270 297 299 295 293 288 288 289 293 294 282 282 280 280 262 256 234 248 220 226 224 224 225 224 226 215 214 200 214 214 224 214 213 219
215 223 223 234 213 227 233 234 249 227 255 298 291 293 304 283 276 283 268 270 281 293 295 310 286 288 276 257 247 239 236 236 237 234 233 226 226 227 206 210 211 224 211 204 162
204 217 226 227 226 229 230 236 229 255 265 294 298 289 267 266 269 299 327 351 443 487 491 170 313 300 289 286 263 257 248 239 235 248 233 217 227 225 229 223 214 217 210 216 208
220 225 227 218 229 232 225 229 242 260 279 302 293 266 271 291 316 336 437 438 426 454 439 448 510 297 317 235 277 271 260 256 251 249 235 238 232 231 214 221 221 210 210 221 220
227 228 221 223 226 228 257 242 258 276 284 302 264 271 290 313 315 429 427 417 411 393 390 292 123 455 409 318 288 271 269 175 253 253 254 258 252 242 241 242 232 237 210 224 222
224 217 222 219 228 231 239 249 261 278 285 283 270 277 299 328 329 440 390 395 380 368 368 100 149 412 474 372 301 293 274 263 262 260 255 257 247 248 249 252 252 152 243 146 237
231 234 225 233 222 251 247 258 274 277 283 263 277 292 311 318 432 433 249 356 375 324 343 318 358 360 377 381 340 297 291 281 269 263 260 257 251 254 259 259 78 129 121 248 238
230 212 226 220 257 238 253 256 272 277 273 267 283 299 310 324 451 404 106 350 353 330 334 325 333 332 338 347 393 344 318 292 280 269 262 257 253 256 246 242 248 263 259 252 244
222 227 227 250 237 253 255 264 267 274 268 275 288 304 310 369 376 379 355 349 337 322 313 316 307 315 332 335 369 341 310 325 292 279 271 269 260 259 250 252 253 252 248 248 244
223 221 249 246 252 250 260 262 269 283 264 278 298 304 309 353 367 378 340 328 345 320 315 309 308 221 323 335 335 340 333 315 332 293 270 276 267 263 251 257 241 242 238 233 238
252 235 246 249 252 256 255 258 278 253 275 284 300 301 325 346 408 371 348 328 334 335 305 304 305 302 136 330 327 319 292 333 337 311 303 280 275 272 251 247 246 237 236 235 235
238 250 246 249 250 251 253 265 262 269 283 293 294 305 362 332 419 366 338 332 334 309 300 312 308 313 324 326 333 100 315 313 307 342 371 324 298 282 264 261 248 242 242 239 239
253 246 248 252 247 249 255 270 261 290 290 292 285 306 359 318 408 372 336 339 320 305 296 296 301 299 164 316 334 327 180 305 315 317 313 363 310 306 288 267 260 261 249 243 243
Wind_Speed
69 55 51 54 63 60 58 55 59 63 65 63 55 66 73 74 73 67 76 74 75 80 76 74 77 80 82 73 84 74 71 70 77 81 81 67 67 64 63 66 62 64 55 50 57
59 58 60 60 64 65 64 59 70 74 63 65 64 68 67 82 84 76 72 86 72 64 66 78 79 81 82 85 81 81 77 75 81 80 78 74 48 65 69 67 64 70 52 57 54
51 53 53 54 76 62 56 64 68 63 68 75 69 82 73 73 72 92 82 83 73 74 76 82 87 82 68 82 81 80 75 82 81 85 81 78 74 70 78 76 70 64 52 52 73
63 68 72 70 75 74 74 77 88 71 79 79 66 66 85 91 85 75 76 93 89 91 81 82 83 88 79 85 84 81 82 79 82 83 81 79 76 71 68 68 72 65 58 67 50
64 69 73 71 70 79 74 78 83 83 89 90 86 91 91 91 89 96 81 94 101 89 95 92 90 86 85 78 87 85 84 84 84 84 82 81 74 73 68 68 73 69 62 48 52
70 73 73 75 79 82 80 80 82 80 82 81 83 86 91 92 98 82 83 85 89 89 95 94 98 100 84 87 79 90 89 82 83 86 83 81 82 79 70 75 67 65 24 36 50
77 79 78 63 84 81 83 83 80 82 80 78 82 79 83 72 89 85 81 81 108 91 91 96 98 99 102 90 85 82 96 92 82 84 88 86 80 84 80 79 77 72 67 64 46
81 80 79 86 89 86 88 83 78 78 79 81 85 82 78 75 75 77 77 83 97 85 95 98 88 100 103 103 92 88 95 93 93 93 91 91 82 75 75 81 75 59 66 52 50
84 78 80 86 89 84 78 76 79 81 81 83 86 81 76 56 49 53 60 69 84 97 97 102 98 100 98 105 107 90 85 96 92 90 95 86 62 89 84 82 79 64 66 66 70
87 89 80 85 87 83 78 76 82 77 87 91 82 79 63 59 54 52 60 65 70 93 98 101 100 107 99 101 104 111 105 88 93 94 95 92 81 76 76 77 81 34 64 70 65
92 82 84 89 86 85 86 83 80 77 93 89 75 68 60 60 59 58 55 62 70 80 89 106 105 89 109 112 105 111 110 110 107 104 84 81 94 89 92 84 85 84 80 76 55
88 92 89 85 85 84 85 82 80 86 88 84 86 62 61 59 60 64 66 63 71 78 91 94 101 101 112 113 112 109 109 95 109 114 111 104 81 100 89 76 73 74 66 64 72
92 87 83 88 84 79 84 82 82 86 86 78 76 60 61 63 66 69 70 71 70 80 90 100 88 113 110 102 111 100 103 98 101 111 102 106 98 101 100 92 95 82 76 67 79
89 89 89 85 93 88 84 80 92 87 89 82 62 58 62 63 66 68 77 76 76 79 87 90 92 103 111 113 109 104 107 106 104 99 105 106 89 98 85 78 81 87 85 84 76
89 89 89 85 90 86 84 91 87 89 87 77 66 62 63 64 66 68 74 79 83 86 89 77 89 103 103 103 118 100 111 111 111 107 104 98 90 89 73 85 84 86 79 80 78
95 99 96 93 86 90 90 89 89 82 82 74 71 66 63 60 65 67 66 73 75 83 89 83 92 94 92 105 113 111 110 111 109 109 101 94 92 90 82 84 88 81 78 71 56
84 90 91 88 88 85 84 85 83 80 80 72 72 68 64 62 68 74 71 68 44 27 23 43 88 92 88 96 103 109 112 109 104 105 95 94 95 89 88 91 89 89 84 80 73
98 92 88 82 87 85 82 82 83 79 75 71 65 66 68 72 70 68 26 29 27 15 19 20 26 80 90 67 90 99 103 106 102 101 97 105 93 92 86 84 85 79 79 80 76
90 87 82 83 82 84 87 83 79 76 71 71 64 66 73 74 65 24 21 20 11 13 22 13 10 14 61 84 92 88 100 43 97 97 91 85 83 90 89 87 82 84 75 81 76
82 78 81 79 84 84 84 82 77 73 71 67 63 68 70 69 62 22 30 17 17 18 19 25 20 8 13 64 85 93 84 94 97 88 81 82 79 77 76 77 76 42 76 43 75
84 84 80 84 80 84 82 80 77 71 72 63 70 72 72 65 42 22 21 27 24 20 19 21 16 16 24 38 72 83 85 93 88 84 79 74 70 75 67 66 18 34 36 64 65
80 74 80 78 81 81 80 77 74 73 69 68 72 74 69 63 29 22 12 21 27 23 22 11 17 21 26 29 43 66 77 86 91 78 73 71 72 67 64 65 62 56 57 59 60
80 81 81 82 81 78 77 73 75 78 70 73 73 72 67 57 42 19 29 23 32 29 28 27 31 29 23 29 20 50 65 71 79 81 76 75 69 65 64 62 59 55 54 52 54
82 80 81 78 77 75 72 73 78 76 70 74 74 67 61 54 39 24 24 28 29 37 33 36 36 35 23 24 27 35 49 63 64 78 65 76 73 65 59 63 60 57 58 57 52
82 82 79 75 75 70 69 74 78 68 75 72 68 64 58 46 26 29 29 29 23 25 40 37 37 35 14 26 34 42 57 37 35 64 73 65 73 72 65 64 63 64 61 60 58
83 78 77 72 67 70 73 82 76 76 75 69 63 61 53 39 18 29 25 27 24 26 24 21 23 26 27 27 36 28 43 46 53 32 30 62 67 72 66 66 68 68 67 65 64
77 76 70 71 70 72 79 78 74 75 70 64 60 59 46 38 19 28 29 28 31 32 28 22 23 23 22 26 21 42 32 42 42 43 44 30 57 62 65 63 68 73 69 68 65
Wind_Direction
265 257 266 291 265 279 267 268 274 279 265 275 260 272 270 270 272 262 261 263 259 260 255 258 257 256 259 259 261 260 261 264 265 266 267 264 271 273 275 274 280 274 274 284 284
295 288 261 264 259 288 268 275 259 263 276 276 273 274 265 265 264 264 260 259 258 266 262 264 260 257 256 259 259 261 260 261 263 266 268 271 268 260 273 276 277 270 275 275 283
272 262 262 273 263 274 274 278 266 276 285 285 274 272 256 268 269 264 265 263 259 258 252 258 260 252 264 257 259 256 257 259 262 264 267 268 269 268 258 261 269 269 272 274 272
294 291 261 282 288 286 286 286 268 259 282 286 269 273 272 267 267 254 266 255 260 254 261 261 252 254 263 254 261 257 258 257 260 262 264 267 268 270 269 269 271 271 267 269 279
286 287 287 290 284 289 279 286 282 283 279 279 282 277 269 276 275 254 264 257 260 259 259 255 259 255 255 261 255 258 259 258 259 261 262 264 268 253 269 272 271 274 266 275 284
282 293 290 286 287 284 289 284 281 282 282 281 279 278 276 275 271 252 269 268 259 259 254 258 259 261 256 254 259 258 257 261 261 260 265 266 265 266 264 254 264 276 244 267 285
288 290 289 285 288 284 288 284 284 285 284 288 278 281 283 276 272 272 266 263 264 273 258 259 255 257 257 252 253 258 256 259 261 260 261 262 264 265 264 266 267 269 274 279 278
290 289 288 286 287 282 287 284 292 291 291 288 294 292 288 284 275 271 267 261 253 252 254 255 260 253 253 254 252 254 256 259 259 259 261 261 260 262 263 266 270 274 277 270 256
288 286 287 287 285 286 290 293 298 298 295 293 299 295 292 283 278 263 258 256 250 249 247 247 252 252 251 251 252 254 257 259 258 257 258 259 259 264 266 267 270 270 277 277 279
288 289 286 289 291 289 290 293 302 299 300 301 299 296 288 282 272 264 255 250 250 247 246 245 248 244 249 251 251 250 252 250 254 257 260 263 261 261 267 269 271 258 272 276 277
285 286 288 289 296 295 296 298 301 294 301 301 296 292 279 275 272 264 257 252 247 247 244 242 245 249 245 247 249 251 250 251 257 258 256 257 262 263 265 269 273 272 274 279 274
285 284 287 290 294 294 296 296 296 300 301 300 301 288 279 271 265 261 260 250 246 243 246 245 241 245 244 245 245 248 247 250 249 252 254 256 256 261 263 263 262 267 270 271 274
284 286 287 292 291 291 294 297 296 299 301 300 298 286 280 275 271 267 262 257 250 245 243 243 241 240 246 248 246 253 252 251 252 251 253 255 256 259 259 261 262 263 264 267 270
287 287 288 290 293 292 295 294 299 300 300 299 296 284 279 276 272 268 265 263 258 249 247 243 241 244 243 242 246 248 247 251 252 251 251 254 255 257 261 262 261 262 263 264 264
285 288 288 290 292 293 294 298 299 301 300 302 296 293 285 278 276 272 268 264 259 256 251 244 241 241 243 244 243 247 247 249 251 252 251 250 252 254 254 259 260 261 259 260 260
286 288 289 290 290 295 297 298 300 299 302 300 296 297 294 287 283 278 270 265 262 260 259 250 246 243 238 242 245 246 246 247 248 250 253 253 253 251 255 257 259 255 258 256 258
285 287 289 291 294 296 297 300 299 303 301 300 299 295 290 286 285 286 286 286 289 286 287 252 250 247 242 240 241 244 247 250 252 250 249 251 252 250 249 248 254 256 258 258 256
281 286 289 290 294 297 296 298 299 302 301 304 301 296 295 297 302 300 284 274 294 279 265 274 259 247 243 241 241 242 243 246 249 250 248 249 250 249 248 249 250 253 257 257 255
284 287 288 291 294 295 299 298 302 302 302 306 298 301 305 308 310 285 254 254 252 258 264 266 280 254 231 238 239 239 242 242 243 243 244 246 244 249 251 251 252 251 250 253 253
285 286 289 290 293 296 297 300 302 304 307 306 303 304 309 313 312 252 277 246 230 232 242 274 263 264 255 233 236 237 238 238 242 243 245 245 244 246 246 247 247 243 250 243 246
285 288 288 292 292 296 298 301 304 306 311 305 309 310 313 315 319 251 292 275 211 229 240 242 229 220 221 221 225 233 233 239 241 241 242 243 243 245 244 243 256 244 251 241 240
286 284 288 289 293 294 298 301 306 311 310 309 310 312 314 317 320 236 226 224 198 215 217 227 217 211 216 223 228 225 229 233 238 238 239 239 240 240 240 242 242 241 239 236 235
284 287 288 291 291 296 298 304 310 311 310 310 312 313 315 323 321 222 224 223 208 208 219 222 227 223 217 213 215 222 227 229 235 237 238 240 237 235 235 238 237 233 233 233 232
283 285 288 289 293 295 300 309 309 307 309 310 312 312 316 320 318 219 237 244 211 214 219 229 226 233 212 197 197 200 216 224 228 233 235 237 240 236 233 235 232 229 230 230 229
282 284 285 289 291 298 304 308 305 306 306 309 310 311 319 318 298 225 226 239 225 208 221 233 235 232 225 202 196 197 226 211 232 227 229 232 233 234 228 227 229 229 228 229 228
282 283 284 286 294 303 305 304 302 304 306 308 309 311 319 313 283 220 224 224 191 188 216 205 214 208 207 198 196 261 215 221 230 220 221 228 230 234 232 232 231 228 228 228 228
279 283 287 297 299 301 301 298 301 303 304 307 307 312 314 308 277 218 224 208 194 200 206 217 212 210 238 191 208 201 237 220 225 227 228 218 230 232 233 232 234 238 230 230 228